Location: 3 Angels Observatory
(30.5437°N, 88.5068°W)
Time: 02:22:18
(UTC-06:00)

Daily predictions for brighter satellites

Satellite Brightness Start Highest point End
(mag) Time Altitude Azimuth Time Altitude Azimuth Time Altitude Azimuth
CZ-3 R/B 4.3 01:09:54 10° W 02:29:36 59° SSE 02:39:12 10° SE
USA 229 DEB 4.3 03:53:48 54° ESE 03:53:48 54° ESE 03:59:27 10° SE
USA 229 4.3 03:53:50 54° ESE 03:53:50 54° ESE 03:59:32 10° SE
CZ-3 Stage 3 3.3 04:12:39 35° E 04:12:39 35° E 04:17:59 10° E
Atlas 2A Centaur Rocket 3.4 04:30:52 37° SSE 04:30:52 37° SSE 04:33:11 10° ESE
OAO 2 Rocket 3.8 04:34:14 55° E 04:34:14 55° E 04:38:07 10° ESE
ISS -0.5 04:45:56 14° SSE 04:45:56 14° SSE 04:46:27 10° SSE
NOSS 3-1 (C) 4.4 04:39:11 24° NNW 04:44:18 66° ENE 04:52:43 10° SE
SL-16 R/B 2.9 05:01:29 35° SW 05:01:29 35° SW 05:05:26 10° S
BREEZE-M DEB (TANK) 3.9 04:52:19 23° NW 05:01:12 83° NE 05:05:23 10° SE
Cosmos 2346 Rocket 4.3 04:57:06 21° NNW 05:01:19 68° W 05:07:18 10° S
Cosmos 1626 4.4 05:01:49 10° NNE 05:04:58 25° E 05:08:04 10° SE
Meteor 2-12 Rocket 4.3 05:06:20 10° S 05:12:29 82° W 05:18:40 10° N
Cosmos 1538 Rocket 4.1 05:11:44 40° NW 05:13:19 55° WSW 05:18:30 10° S
Cosmos 2221 2.4 05:09:56 10° SSW 05:14:13 65° W 05:18:30 10° N
Ariane Rocket 3.4 05:10:37 10° NNE 05:15:42 66° ESE 05:20:45 10° S
SKYMED 2 3.6 05:13:39 10° SSE 05:17:58 83° ENE 05:22:19 10° N
ASTRO F (AKARI) 4.3 05:14:41 10° SSE 05:17:58 87° ENE 05:19:02 42° N
Delta 198 4.1 05:19:00 29° SSW 05:19:42 31° S 05:22:59 10° ESE
DELTA 2 R/B (1) 4.4 05:18:45 29° NW 05:20:16 34° N 05:25:19 10° ENE
Cosmos 2034 Rocket 4.0 05:14:10 10° S 05:20:20 83° E 05:26:36 10° N
H-2A R/B 1.3 05:20:50 36° SSE 05:20:50 36° SSE 05:22:11 10° ESE
Cosmos 923 Rocket 4.2 05:15:41 10° N 05:20:55 71° ENE 05:26:10 10° SSE
Cosmos 1898 Rocket 4.5 05:18:15 10° S 05:23:17 50° ESE 05:28:23 10° NNE
Cosmos 1680 Rocket 4.0 05:22:25 10° N 05:27:41 61° ENE 05:32:55 10° SSE
CZ-4 R/B 3.5 05:24:56 10° NE 05:28:35 30° E 05:32:14 10° SSE
Cosmos 2344 3.5 05:22:01 10° SSW 05:29:47 84° WNW 05:37:57 10° NNE
Cosmos 1513 Rocket 4.4 05:23:49 10° SSW 05:30:03 71° W 05:36:25 10° N
Cosmos 1703 3.2 05:26:08 10° N 05:30:05 84° E 05:34:02 10° S
Cosmos 2151 3.5 05:29:47 35° WNW 05:30:18 36° W 05:34:12 10° SSW
Cosmos 1666 Rocket 4.1 05:31:53 10° N 05:36:20 63° E 05:40:45 10° SSE
PAYLOAD A 4.3 05:31:56 10° NNE 05:36:47 63° E 05:41:27 10° S
IDEFIX/ARIANE 42P 3.9 05:32:25 10° NNE 05:37:25 42° E 05:42:22 10° S
Cosmos 1943 3.7 05:33:04 10° NNW 05:38:43 60° ENE 05:44:17 10° SSE
DMSP B5D1-3 4.4 05:34:32 10° S 05:39:40 78° WSW 05:44:47 10° NNW
Gbstr 26 Del rocket 4.3 05:43:30 21° W 05:46:16 34° NW 05:51:55 10° NNE
Cosmos 1184 Rocket 2.7 05:44:27 10° N 05:47:45 80° W 05:51:03 10° S
Cosmos 1464 Rocket 4.4 05:41:59 10° SSW 05:47:51 40° W 05:53:42 10° NNW
Cosmos 1937 Rocket 3.9 05:45:19 10° S 05:50:24 65° ESE 05:55:29 10° NNE
Cosmos 2263 Rocket 2.3 05:45:15 10° SW 05:50:45 53° WNW 05:56:20 10° N
CSL-04 Debris 4.1 05:45:38 10° N 05:51:06 79° WNW 05:56:32 10° SSW
EP 1 4.3 05:51:55 10° SW 05:54:43 53° WNW 05:57:15 10° NNE
NOSS 3-3 (A) 4.0 05:49:57 10° SSW 05:56:02 86° ESE 06:02:31 10° NNE
NOSS 3-3 (C) 4.0 05:50:05 10° SSW 05:56:10 85° ESE 06:02:38 10° NNE
NOSS 3-1 (A) 4.3 05:49:12 10° NW 05:57:00 59° WSW 06:05:17 10° S
Cosmos 1726 3.9 05:54:10 10° SSE 05:57:32 35° E 06:00:55 10° NNE
Cosmos 389 Rocket 2.9 05:54:07 10° SSW 05:57:36 42° W 06:01:07 10° N
Cosmos 1340 Rocket 4.1 05:57:16 16° WNW 05:58:48 20° W 06:01:44 10° SW
Coronas F rocket 0.8 05:57:39 10° N 06:00:02 71° W 06:02:24 10° S
Cosmos 2112 Rocket 4.0 05:58:42 10° NNW 06:04:01 68° WSW 06:09:18 10° S
Cosmos 1603 4.5 05:59:54 10° NW 06:04:48 31° WSW 06:09:43 10° SSW
ATLAS 2AS CENTAUR R/B 3.9 05:57:55 10° NNW 06:05:36 49° NE 06:12:40 10° SE
ATLAS 3B CENTAUR R/B 3.6 06:00:10 10° WSW 06:05:45 69° SSE 06:22:19 10° E
COSMO-SKYMED 1 3.7 06:02:33 10° SSW 06:06:04 24° W 06:09:37 10° NW
Cosmos 2298 Rocket 4.0 06:02:39 10° SSW 06:07:52 61° WNW 06:13:06 10° N
Cosmos 1470 Rocket 4.3 06:04:55 10° N 06:09:11 56° E 06:13:28 10° SSE
Cosmos 1908 3.8 06:06:47 10° SW 06:10:15 33° W 06:13:44 10° NNW
CSL-04 Rocket 4.0 06:07:20 10° N 06:12:13 39° WNW 06:17:05 10° SW
CZ-2C R/B 2.2 06:09:28 10° N 06:14:01 77° WNW 06:18:37 10° SSW
Milstar 3 Cent rocket 3.0 06:05:22 10° WSW 06:14:20 63° S 06:19:26 10° E
OAO 2 Rocket 4.3 06:13:21 10° W 06:17:47 34° SSW 06:22:12 10° SE
GPS 2-05 Rocket1 2.6 06:15:05 10° WNW 06:18:14 79° NNE 06:21:31 10° ESE
APEX 4.5 06:16:11 10° WSW 06:18:56 18° WNW 06:21:21 10° NNW
Cosmos 1300 2.8 06:18:25 10° S 06:22:13 83° E 06:26:03 10° N
CZ-3B DEB 3.4 06:21:40 10° S 06:23:23 15° SE 06:24:37 10° E
ASTRO E2 2.9 06:19:30 10° WSW 06:23:30 74° SSE 06:27:30 10° E
